星链-32209 (STARLINK-32209)

导读 | 豆包AI

STARLINK-32209是美国太空探索技术公司(SpaceX)于2024年8月20日发射的星链(Starlink)低轨互联网卫星,是Starlink星座组网扩容的组成部分。星链项目旨在为全球尤其是基础设施匮乏地区提供高速低延迟的宽带互联网接入服务,该卫星运行在近地轨道,可以支撑用户获得百兆级下载速率和数十毫秒低延迟,助力星链完成全球覆盖的组网目标。

基本信息
目录编号:
60590
目录名称:
STARLINK-32209
国际标识:
2024-150H
轨道中心:
EARTH
卫星名称:
星链-32209 (STARLINK-32209)
卫星全名:
星链-32209 (STARLINK-32209)
卫星状态:
在轨 (已飞行572 天)
发射日期:
2024-08-20 UTC
国别 :
美国 (US)
星等 :
--
轨道信息
数据来源 国际轨道数据 AOE轨道数据
星历时间 2026-03-15T01:23:46+0800
23小时前
查看轨道信息
2026-03-10T22:00:00+0800
5天前
查看轨道信息
半长轴 6853.406km 6853.378km
偏心率 0.0000226 0.0000647
轨道倾角 53.161° 53.163°
近地点辐角 29.643° 143.046°
升交点赤经 283.544° 302.782°
平近点角 330.458° 70.087°
近地点 475.114km 474.797km
远地点 475.424km 475.685km
周期 94.106分钟 94.106分钟
每日圈数 15.301821 15.301915
详细信息
卫星平台:
Starlink v2.0 mini
运营商:
太空探索技术公司
运营商所在国:
美国
制造商(研发单位):
太空探索技术公司
制造商所在国:
美国
使用方式:
暂无
卫星简介
星链(Starlink)计划是由太空探索技术公司(SpaceX)提出的一个巨型低轨卫星互联网星座项目,计划在2019年至2024年间在太空搭建由约1.2万颗卫星组成的“星链”网络,其中1584颗将部署在地球上空550千米处的近地轨道,并从2020年开始工作。该卫星仍在工作。
2D轨道图
3D轨道图
轨道高度分析图
轨道倾角分析图
轨道综合分析图
查看轨道综合分析图